• Join FlightAware (Why Join?)
  • Login
  • US Flag GB Flag 
20:40 EDT


 

Airport Tracker/Info


-or-


 

Live Flight TrackerFlight Track Log ✈ BAW196 ✈ 21-Jun-2013 ✈ KIAH - EGLL / LHR

Flight Track Log - Related Links

Times and Time Zones

All times are in EDT time to prevent confusion due to time zone crossing. See the BAW196 flight status page for this flight to view local times or setup timezone preferences in your user account.

Time Position Orientation Groundspeed Altitude Reporting Facility
EDT Latitude Longitude Course Direction KTS MPH feet Rate Location/Type
21:47 29.9708 -95.3474 196° South 120 138 100  Level FlightAware ADS-B
21:48 29.9587 -95.3400 152° Southeast 174 200 700 1,860 Climbing FlightAware ADS-B
21:48 29.9556 -95.3378 148° Southeast 174 200 800 2,400 Climbing FlightAware ADS-B
21:48 29.9522 -95.3346 141° Southeast 175 201 1,100 2,760 Climbing FlightAware ADS-B
21:48 29.9486 -95.3290 127° Southeast 178 205 1,400 1,620 Climbing FlightAware ADS-B
21:48 29.9474 -95.3258 113° Southeast 181 208 1,400 840 Level FlightAware ADS-B
21:48 29.9467 -95.3223 103° East 187 215 1,500 600 Climbing FlightAware ADS-B
21:48 29.9465 -95.3165 92° East 194 223 1,500  Level FlightAware ADS-B
21:48 29.9470 -95.3127 81° East 202 232 1,500 840 Level FlightAware ADS-B
21:48 29.9482 -95.3085 72° East 206 237 1,600 960 Climbing FlightAware ADS-B
21:48 29.9523 -95.3008 58° Northeast 220 253 1,700 480 Climbing FlightAware ADS-B
21:49 29.9550 -95.2975 47° Northeast 228 262 1,700 720 Level FlightAware ADS-B
21:49 29.9584 -95.2945 37° Northeast 232 267 1,800 1,680 Climbing FlightAware ADS-B
21:49 29.9620 -95.2921 30° Northeast 237 273 1,900 720 Climbing FlightAware ADS-B
21:49 29.9661 -95.2901 23° Northeast 242 278 1,900 720 Level FlightAware ADS-B
21:49 29.9698 -95.2887 18° North 245 282 2,000 1,320 Climbing FlightAware ADS-B
21:49 29.9763 -95.2868 14° North 251 289 2,100 1,380 Climbing FlightAware ADS-B
21:49 29.9945 -95.2821 13° North 262 302 2,500 1,500 Climbing FlightAware ADS-B
21:49 30.0130 -95.2776 12° North 272 313 2,900 1,680 Climbing FlightAware ADS-B
21:50 30.0334 -95.2733 10° North 276 318 3,400 1,260 Climbing FlightAware ADS-B
21:50 30.0728 -95.2634 12° North 277 319 3,900 480 Climbing FlightAware ADS-B
21:51 30.1472 -95.2440 13° North 278 320 4,200 600 Climbing FlightAware ADS-B
21:51 30.1582 -95.2399 20° North 276 318 4,600 2,340 Climbing FlightAware ADS-B
21:52 30.1893 -95.2166 37° Northeast 277 319 5,700 2,100 Climbing FlightAware ADS-B
21:52 30.2055 -95.2022 38° Northeast 279 321 6,200 1,980 Climbing FlightAware ADS-B
21:53 30.2544 -95.1581 38° Northeast 288 331 7,800 1,920 Climbing FlightAware ADS-B
21:54 30.3399 -95.0821 37° Northeast 302 348 10,300 1,620 Climbing FlightAware ADS-B
21:55 30.3758 -95.0502 37° Northeast 328 377 10,800 960 Climbing FlightAware ADS-B
21:55 30.4138 -95.0164 37° Northeast 351 404 11,300 1,380 Climbing FlightAware ADS-B
21:57 30.5360 -94.9073 38° Northeast 374 430 13,700 1,560 Climbing FlightAware ADS-B
21:57 30.5799 -94.8714 35° Northeast 378 435 14,500 1,500 Climbing FlightAware ADS-B
21:59 30.7158 -94.7670 33° Northeast 390 449 16,800 1,500 Climbing FlightAware ADS-B
21:59 30.7621 -94.7313 34° Northeast 394 453 17,600 1,320 Climbing FlightAware ADS-B
22:01 30.9519 -94.5846 34° Northeast 411 473 20,300 1,260 Climbing FlightAware ADS-B
22:02 31.0044 -94.5439 34° Northeast 415 478 21,000 1,140 Climbing FlightAware ADS-B
22:02 31.0534 -94.5060 34° Northeast 420 483 21,500 1,020 Climbing FlightAware ADS-B
22:03 31.1052 -94.4656 34° Northeast 426 490 22,100 1,140 Climbing FlightAware ADS-B
22:03 31.1570 -94.4253 34° Northeast 430 495 22,700 1,080 Climbing FlightAware ADS-B
22:04 31.2072 -94.3862 34° Northeast 433 498 23,200 1,020 Climbing FlightAware ADS-B
22:04 31.2608 -94.3443 34° Northeast 437 503 23,800 1,020 Climbing FlightAware ADS-B
22:05 31.3117 -94.3046 34° Northeast 442 509 24,300 960 Climbing FlightAware ADS-B
22:06 31.4170 -94.2222 34° Northeast 450 518 25,300 960 Climbing FlightAware ADS-B
22:07 31.5609 -94.1091 34° Northeast 461 531 26,700 900 Climbing FlightAware ADS-B
22:08 31.6516 -94.0374 34° Northeast 469 540 27,400 840 Climbing FlightAware ADS-B
22:08 31.6852 -94.0075 37° Northeast 471 542 27,700 1,020 Climbing FlightAware ADS-B
22:09 31.7121 -93.9804 41° Northeast 474 545 28,000 840 Climbing FlightAware ADS-B
22:09 31.7775 -93.9062 44° Northeast 475 547 28,500 840 Climbing FlightAware ADS-B
22:10 31.8438 -93.8301 44° Northeast 483 556 29,200 900 Climbing FlightAware ADS-B
22:11 31.8929 -93.7734 44° Northeast 487 560 29,600 900 Climbing FlightAware ADS-B
22:12 32.0679 -93.5711 44° Northeast 494 568 31,300 780 Climbing FlightAware ADS-B
22:14 32.2227 -93.3913 44° Northeast 507 583 32,300 660 Climbing FlightAware ADS-B
22:15 32.3286 -93.2636 44° Northeast 501 577 33,200 900 Climbing Fort Worth Center
22:16 32.4292 -93.1481 44° Northeast 501 577 34,300 900 Climbing Fort Worth Center
22:17 32.5275 -93.0328 45° Northeast 501 577 35,000 300 Climbing Fort Worth Center
22:18 32.6256 -92.9144 45° Northeast 501 577 35,000  Level Fort Worth Center
22:19 32.7278 -92.7958 44° Northeast 501 577 35,000  Level Fort Worth Center
22:20 32.8258 -92.6819 44° Northeast 496 571 35,000  Level Fort Worth Center
22:21 32.9258 -92.5653 44° Northeast 496 571 35,000  Level Fort Worth Center
22:24 33.1603 -92.2828 45° Northeast 500 575 35,000  Level Memphis Center
22:25 33.2603 -92.1633 45° Northeast 500 575 35,000  Level Memphis Center
22:26 33.3578 -92.0486 44° Northeast 500 575 35,000  Level Memphis Center
22:27 33.4575 -91.9308 45° Northeast 500 575 35,000  Level Memphis Center
22:28 33.5486 -91.8103 48° Northeast 500 575 35,000  Level Memphis Center
22:29 33.6458 -91.6947 45° Northeast 494 568 35,000  Level Memphis Center
22:30 33.7431 -91.5764 45° Northeast 494 568 35,000  Level Memphis Center
22:31 33.8486 -91.4453 46° Northeast 494 568 35,000  Level Memphis Center
22:32 33.9436 -91.3286 46° Northeast 494 568 35,000  Level Memphis Center
22:33 34.0406 -91.2119 45° Northeast 489 563 35,000  Level Memphis Center
22:34 34.1350 -91.0925 46° Northeast 489 563 35,000  Level Memphis Center
22:35 34.2339 -90.9728 45° Northeast 489 563 35,000  Level Memphis Center
22:36 34.3283 -90.8550 46° Northeast 489 563 35,000  Level Memphis Center
22:37 34.4247 -90.7322 46° Northeast 489 563 35,000  Level Memphis Center
22:38 34.5106 -90.6294 45° Northeast 484 557 35,000  Level Memphis Center
22:39 34.6067 -90.5061 47° Northeast 489 563 35,000  Level Memphis Center
22:40 34.7006 -90.3875 46° Northeast 489 563 35,000  Level Memphis Center
22:41 34.7944 -90.2711 45° Northeast 484 557 35,000  Level Memphis Center
22:42 34.8903 -90.1494 46° Northeast 484 557 35,000  Level Memphis Center
22:43 34.9964 -90.0175 46° Northeast 484 557 35,000  Level Memphis Center
22:44 35.0647 -89.8725 60° Northeast 495 570 35,000  Level Memphis Center
22:45 35.1183 -89.7122 68° East 495 570 35,000  Level Memphis Center
22:46 35.1694 -89.5569 68° East 495 570 35,000  Level Memphis Center
22:47 35.2186 -89.4167 67° East 490 564 35,000  Level Memphis Center
22:48 35.2717 -89.2633 67° East 495 570 35,000  Level Memphis Center
22:49 35.3264 -89.1100 66° East 495 570 35,000  Level Memphis Center
22:50 35.3792 -88.9564 67° East 495 570 35,000  Level Memphis Center
22:51 35.4333 -88.7875 68° East 495 570 35,000  Level Memphis Center
22:56 35.7240 -87.9820 68° East 474 545 35,000  Level FlightAware
22:57 35.7680 -87.8760 63° Northeast 473 544 35,000  Level FlightAware
22:57 35.8150 -87.7590 64° Northeast 471 542 35,000  Level FlightAware
22:58 35.8530 -87.6630 64° Northeast 470 541 35,000  Level FlightAware
22:59 35.8920 -87.5630 64° Northeast 470 541 35,000  Level FlightAware
23:00 35.9350 -87.4580 63° Northeast 472 543 35,000  Level FlightAware
23:00 35.9880 -87.3270 63° Northeast 471 542 35,000  Level FlightAware
23:01 36.0290 -87.2250 64° Northeast 470 541 35,000  Level FlightAware
23:02 36.0738 -87.1142 63° Northeast 470 541 35,000  Level FlightAware ADS-B
23:03 36.1117 -87.0196 64° Northeast 469 540 35,000  Level FlightAware ADS-B
23:03 36.1530 -86.9170 63° Northeast 470 541 35,000  Level FlightAware
23:03 36.1614 -86.8953 64° Northeast 470 541 35,000  Level FlightAware ADS-B
23:04 36.1905 -86.8223 64° Northeast 469 540 35,000  Level FlightAware ADS-B
23:05 36.2213 -86.7448 64° Northeast 466 536 35,000  Level FlightAware ADS-B
23:05 36.2508 -86.6703 64° Northeast 466 536 35,000  Level FlightAware ADS-B
23:06 36.3120 -86.5160 64° Northeast 463 533 35,000  Level FlightAware
23:07 36.3460 -86.4280 64° Northeast 466 536 35,000  Level FlightAware
23:07 36.3890 -86.3210 63° Northeast 468 539 35,000  Level FlightAware
23:08 36.4355 -86.2007 64° Northeast 469 540 35,000  Level FlightAware ADS-B
23:09 36.4640 -86.1274 64° Northeast 471 542 35,000  Level FlightAware ADS-B
23:09 36.4928 -86.0536 64° Northeast 471 542 35,000  Level FlightAware ADS-B
23:10 36.5224 -85.9774 64° Northeast 469 540 35,000  Level FlightAware ADS-B
23:10 36.5547 -85.8939 64° Northeast 470 541 35,000  Level FlightAware ADS-B
23:11 36.6096 -85.7517 64° Northeast 473 544 35,000  Level FlightAware ADS-B
23:12 36.6379 -85.6779 64° Northeast 471 542 35,000  Level FlightAware ADS-B
23:12 36.6660 -85.6047 64° Northeast 469 540 35,000  Level FlightAware ADS-B
23:13 36.6944 -85.5303 65° Northeast 468 539 35,000  Level FlightAware ADS-B
23:13 36.7259 -85.4478 65° Northeast 467 537 35,000  Level FlightAware ADS-B
23:14 36.7590 -85.3610 65° Northeast 469 540 35,000  Level FlightAware ADS-B
23:15 36.7940 -85.2690 65° Northeast 471 542 35,000  Level FlightAware
23:16 36.8475 -85.1272 65° Northeast 472 543 35,000  Level FlightAware ADS-B
23:16 36.8849 -85.0277 65° Northeast 472 543 35,000  Level FlightAware ADS-B
23:17 36.9196 -84.9355 65° Northeast 473 544 35,000  Level FlightAware ADS-B
23:17 36.9481 -84.8594 65° Northeast 472 543 35,000  Level FlightAware ADS-B
23:18 36.9765 -84.7833 65° Northeast 472 543 35,000  Level FlightAware ADS-B
23:19 37.0081 -84.6986 65° Northeast 474 545 35,000  Level FlightAware ADS-B
23:19 37.0357 -84.6242 65° Northeast 474 545 35,000  Level FlightAware ADS-B
23:20 37.0641 -84.5473 65° Northeast 473 544 35,000  Level FlightAware ADS-B
23:20 37.0920 -84.4719 65° Northeast 472 543 35,000  Level FlightAware ADS-B
23:21 37.1199 -84.3964 65° Northeast 469 540 35,000  Level FlightAware ADS-B
23:21 37.1473 -84.3220 65° Northeast 464 534 35,000  Level FlightAware ADS-B
23:22 37.1749 -84.2468 65° Northeast 464 534 35,000  Level FlightAware ADS-B
23:22 37.2020 -84.1725 65° Northeast 465 535 35,000  Level FlightAware ADS-B
23:23 37.2324 -84.0893 65° Northeast 465 535 35,000  Level FlightAware ADS-B
23:23 37.2594 -84.0154 65° Northeast 465 535 35,000  Level FlightAware ADS-B
23:24 37.2865 -83.9410 65° Northeast 465 535 35,000  Level FlightAware ADS-B
23:24 37.3141 -83.8647 66° East 464 534 35,000  Level FlightAware ADS-B
23:25 37.3416 -83.7886 66° East 465 535 35,000  Level FlightAware ADS-B
23:25 37.3680 -83.7170 65° Northeast 465 535 35,000  Level FlightAware
23:26 37.3899 -83.6547 66° East 466 536 35,000  Level FlightAware ADS-B
23:26 37.4182 -83.5757 66° East 467 537 35,000  Level FlightAware ADS-B
23:27 37.4452 -83.5003 66° East 470 541 35,000  Level FlightAware ADS-B
23:27 37.4735 -83.4211 66° East 470 541 35,000  Level FlightAware ADS-B
23:28 37.5003 -83.3457 66° East 472 543 35,000  Level FlightAware ADS-B
23:28 37.5283 -83.2671 66° East 473 544 35,000  Level FlightAware ADS-B
23:32 37.7310 -82.6920 66° East 469 540 35,000  Level FlightAware
23:33 37.7650 -82.5930 66° East 468 539 35,000  Level FlightAware
23:33 37.8030 -82.4810 67° East 468 539 35,000  Level FlightAware
23:34 37.8380 -82.3810 66° East 468 539 35,000  Level FlightAware
23:35 37.8676 -82.2952 66° East 470 541 35,000  Level FlightAware ADS-B
23:35 37.8956 -82.2136 66° East 471 542 35,000  Level FlightAware ADS-B
23:36 37.9244 -82.1296 66° East 472 543 35,000  Level FlightAware ADS-B
23:36 37.9517 -82.0495 67° East 473 544 35,000  Level FlightAware ADS-B
23:37 37.9783 -81.9714 67° East 473 544 35,000  Level FlightAware ADS-B
23:37 38.0048 -81.8931 67° East 472 543 35,000  Level FlightAware ADS-B
23:38 38.0305 -81.8169 67° East 473 544 35,000  Level FlightAware ADS-B
23:39 38.0768 -81.6799 67° East 474 545 35,000  Level FlightAware ADS-B
23:39 38.1106 -81.5790 67° East 474 545 35,000  Level FlightAware ADS-B
23:40 38.1546 -81.4474 67° East 473 544 35,000  Level FlightAware ADS-B
23:41 38.2100 -81.2790 67° East 472 543 35,000  Level FlightAware
23:42 38.2490 -81.1630 67° East 472 543 35,000  Level FlightAware
23:43 38.2830 -81.0590 67° East 471 542 35,000  Level FlightAware
23:43 38.3170 -80.9560 67° East 471 542 35,000  Level FlightAware
23:44 38.3530 -80.8460 67° East 466 536 35,000  Level FlightAware
23:45 38.3900 -80.7330 67° East 460 529 35,000  Level FlightAware
23:46 38.4220 -80.6340 68° East 455 524 35,000  Level FlightAware
23:46 38.4580 -80.5250 67° East 454 522 35,000  Level FlightAware
23:47 38.4910 -80.4200 68° East 455 524 35,000  Level FlightAware
23:48 38.5210 -80.3270 68° East 457 526 35,000  Level FlightAware
23:48 38.5590 -80.2080 68° East 457 526 35,000  Level FlightAware
23:49 38.5860 -80.1230 68° East 457 526 35,000  Level FlightAware
23:50 38.6200 -80.0170 68° East 459 528 35,000  Level FlightAware
23:50 38.6570 -79.9010 68° East 459 528 35,000  Level FlightAware
23:51 38.6920 -79.7880 68° East 459 528 35,000  Level FlightAware
23:52 38.7230 -79.6920 67° East 461 531 35,000  Level FlightAware
23:53 38.7550 -79.5890 68° East 461 531 35,000  Level FlightAware
23:53 38.7910 -79.4730 68° East 463 533 35,000  Level FlightAware
23:54 38.8220 -79.3720 68° East 463 533 35,000  Level FlightAware
23:55 38.8560 -79.2630 68° East 464 534 35,000  Level FlightAware
23:56 38.8840 -79.1710 69° East 466 536 35,000  Level FlightAware
23:57 38.9690 -78.8930 68° East 467 537 35,000  Level FlightAware
23:58 39.0010 -78.7900 68° East 469 540 35,000  Level FlightAware
23:58 39.0330 -78.6830 69° East 469 540 35,000  Level FlightAware
23:59 39.0670 -78.5690 69° East 471 542 35,000  Level FlightAware
00:00 39.0990 -78.4630 69° East 472 543 35,000  Level FlightAware
00:00 39.1280 -78.3680 68° East 473 544 35,000  Level FlightAware
00:01 39.1508 -78.2907 69° East 475 547 35,000  Level FlightAware ADS-B
00:02 39.1885 -78.1637 69° East 477 549 35,000  Level FlightAware ADS-B
00:02 39.2243 -78.0427 69° East 478 550 35,000  Level FlightAware ADS-B
00:03 39.2482 -77.9619 69° East 479 551 35,000  Level FlightAware ADS-B
00:03 39.2722 -77.8797 69° East 480 552 35,000  Level FlightAware ADS-B
00:04 39.2972 -77.7943 69° East 478 550 35,000  Level FlightAware ADS-B
00:05 39.3208 -77.7133 69° East 478 550 35,000  Level FlightAware ADS-B
00:05 39.3444 -77.6323 69° East 478 550 35,000  Level FlightAware ADS-B
00:06 39.3678 -77.5517 69° East 478 550 35,000  Level FlightAware ADS-B
00:06 39.3913 -77.4706 69° East 478 550 35,000  Level FlightAware ADS-B
00:07 39.4146 -77.3898 70° East 479 551 35,000  Level FlightAware ADS-B
00:07 39.4379 -77.3086 70° East 478 550 35,000  Level FlightAware ADS-B
00:08 39.4612 -77.2274 70° East 477 549 35,000  Level FlightAware ADS-B
00:08 39.4843 -77.1465 70° East 480 552 35,000  Level FlightAware ADS-B
00:09 39.5072 -77.0657 70° East 480 552 35,000  Level FlightAware ADS-B
00:09 39.5305 -76.9839 70° East 481 554 35,000  Level FlightAware ADS-B
00:10 39.5538 -76.9018 70° East 482 555 35,000  Level FlightAware ADS-B
00:10 39.5777 -76.8171 70° East 485 558 35,000  Level FlightAware ADS-B
00:11 39.6008 -76.7346 70° East 487 560 35,000  Level FlightAware ADS-B
00:11 39.6240 -76.6520 70° East 487 560 35,000  Level FlightAware ADS-B
00:12 39.6473 -76.5686 70° East 488 562 35,000  Level FlightAware ADS-B
00:12 39.6703 -76.4862 70° East 486 559 35,000  Level FlightAware ADS-B
00:13 39.6930 -76.4042 70° East 485 558 35,000  Level FlightAware ADS-B
00:13 39.7157 -76.3220 70° East 486 559 35,000  Level FlightAware ADS-B
00:14 39.7389 -76.2382 70° East 486 559 35,000  Level FlightAware ADS-B
00:14 39.7618 -76.1548 70° East 485 558 35,000  Level FlightAware ADS-B
00:15 39.7846 -76.0715 70° East 485 558 35,000  Level FlightAware ADS-B
00:15 39.8073 -75.9883 70° East 485 558 35,000  Level FlightAware ADS-B
00:16 39.8298 -75.9055 70° East 485 558 35,000  Level FlightAware ADS-B
00:16 39.8558 -75.8098 70° East 485 558 35,000  Level FlightAware ADS-B
00:17 39.8866 -75.6954 71° East 486 559 35,000  Level FlightAware ADS-B
00:17 39.9091 -75.6120 71° East 488 562 35,000  Level FlightAware ADS-B
00:18 39.9333 -75.5217 71° East 488 562 35,000  Level FlightAware ADS-B
00:18 39.9560 -75.4368 71° East 489 563 35,000  Level FlightAware ADS-B
00:19 39.9783 -75.3529 71° East 490 564 35,000  Level FlightAware ADS-B
00:20 40.0021 -75.2626 71° East 491 565 35,000  Level FlightAware ADS-B
00:20 40.0240 -75.1630 74° East 493 567 35,000  Level FlightAware ADS-B
00:21 40.0434 -75.0700 75° East 495 570 35,000  Level FlightAware ADS-B
00:21 40.0623 -74.9818 74° East 494 568 35,000  Level FlightAware ADS-B
00:22 40.0813 -74.8936 74° East 495 570 35,000  Level FlightAware ADS-B
00:22 40.1004 -74.8059 74° East 495 570 35,000  Level FlightAware ADS-B
00:23 40.1193 -74.7193 74° East 496 571 35,000  Level FlightAware ADS-B
00:23 40.1380 -74.6325 74° East 496 571 35,000  Level FlightAware ADS-B
00:24 40.1570 -74.5449 74° East 496 571 35,000  Level FlightAware ADS-B
00:24 40.1774 -74.4491 74° East 497 572 35,000  Level FlightAware ADS-B
00:25 40.1974 -74.3550 74° East 496 571 35,000  Level FlightAware ADS-B
00:25 40.2159 -74.2673 75° East 497 572 35,000  Level FlightAware ADS-B
00:26 40.2348 -74.1777 75° East 497 572 35,000  Level FlightAware ADS-B
00:26 40.2561 -74.0758 75° East 498 573 35,000  Level FlightAware ADS-B
00:27 40.2746 -73.9876 75° East 499 574 35,000  Level FlightAware ADS-B
00:27 40.2950 -73.8892 75° East 499 574 35,000  Level FlightAware ADS-B
00:28 40.3156 -73.7889 75° East 501 577 35,000  Level FlightAware ADS-B
00:29 40.3337 -73.7010 75° East 502 578 35,000  Level FlightAware ADS-B
00:29 40.3521 -73.6114 75° East 502 578 35,000  Level FlightAware ADS-B
00:30 40.3721 -73.5139 75° East 503 579 35,000  Level FlightAware ADS-B
00:30 40.3902 -73.4245 75° East 503 579 35,000  Level FlightAware ADS-B
00:31 40.4126 -73.3242 74° East 503 579 35,000  Level FlightAware ADS-B
00:32 40.4644 -73.1880 63° Northeast 498 573 35,000  Level FlightAware ADS-B
00:32 40.4988 -73.0949 64° Northeast 499 574 35,000  Level FlightAware ADS-B
00:33 40.5282 -73.0115 65° Northeast 499 574 35,000  Level FlightAware ADS-B
00:33 40.5569 -72.9280 66° East 501 577 35,000  Level FlightAware ADS-B
00:34 40.5905 -72.8292 66° East 501 577 35,000  Level FlightAware ADS-B
00:34 40.6209 -72.7391 66° East 501 577 35,000  Level FlightAware ADS-B
00:35 40.6495 -72.6545 66° East 502 578 35,000  Level FlightAware ADS-B
00:35 40.6781 -72.5696 66° East 503 579 35,000  Level FlightAware ADS-B
00:36 40.7074 -72.4862 65° Northeast 505 581 35,000  Level FlightAware ADS-B
00:36 40.7378 -72.4019 65° Northeast 505 581 35,000  Level FlightAware ADS-B
00:37 40.7677 -72.3186 65° Northeast 505 581 35,000  Level FlightAware ADS-B
00:37 40.7978 -72.2339 65° Northeast 506 582 35,000  Level FlightAware ADS-B
00:38 40.8279 -72.1490 65° Northeast 507 583 35,000  Level FlightAware ADS-B
00:38 40.8579 -72.0638 65° Northeast 508 585 35,000  Level FlightAware ADS-B
00:39 40.8880 -71.9783 65° Northeast 509 586 35,000  Level FlightAware ADS-B
00:39 40.9177 -71.8932 65° Northeast 509 586 35,000  Level FlightAware ADS-B
00:40 40.9476 -71.8076 65° Northeast 509 586 35,000  Level FlightAware ADS-B
00:40 40.9781 -71.7203 65° Northeast 508 585 35,000  Level FlightAware ADS-B
00:41 41.0087 -71.6323 65° Northeast 508 585 35,000  Level FlightAware ADS-B
00:41 41.0386 -71.5457 65° Northeast 510 587 35,000  Level FlightAware ADS-B
00:42 41.0720 -71.4490 65° Northeast 510 587 35,000  Level FlightAware
00:43 41.1112 -71.3352 65° Northeast 511 588 35,000  Level FlightAware ADS-B
00:43 41.1414 -71.2470 66° East 511 588 35,000  Level FlightAware ADS-B
00:44 41.1960 -71.0870 66° East 511 588 35,000  Level FlightAware
00:45 41.2370 -70.9650 66° East 510 587 35,000  Level FlightAware
00:46 41.2810 -70.8360 66° East 511 588 35,000  Level FlightAware
00:46 41.3230 -70.7120 66° East 512 589 35,000  Level FlightAware
00:47 41.3660 -70.5830 66° East 504 580 35,000  Level FlightAware
00:48 41.3960 -70.4910 66° East 504 580 35,000  Level FlightAware
00:49 41.4840 -70.2240 66° East 502 578 35,000  Level FlightAware
00:50 41.5280 -70.0860 67° East 502 578 35,000  Level FlightAware
00:51 41.5800 -69.9340 65° Northeast 503 579 35,000  Level FlightAware
00:51 41.6180 -69.8190 66° East 504 580 35,000  Level FlightAware
00:52 41.6600 -69.6870 67° East 505 581 35,000  Level FlightAware
00:53 41.6960 -69.5760 66° East 35,000  Level FlightAware
00:54 41.7430 -69.4320 66° East 508 585 35,000  Level FlightAware
00:55 41.8020 -69.2450 67° East 507 583 35,000  Level FlightAware
00:56 41.8560 -69.0770 67° East 508 585 35,000  Level FlightAware
00:56 41.8870 -68.9770 67° East 508 585 35,000  Level FlightAware
00:57 41.9300 -68.8410 67° East 510 587 35,000  Level FlightAware
00:58 41.9820 -68.6730 67° East 512 589 35,000  Level FlightAware
00:59 42.0260 -68.5280 68° East 513 590 35,000  Level FlightAware
01:00 42.0740 -68.3750 67° East 513 590 35,000  Level FlightAware
01:01 42.1510 -68.1250 67° East 518 596 35,000  Level FlightAware
01:02 42.1950 -67.9800 68° East 518 596 35,000  Level FlightAware
01:03 42.2270 -67.8780 67° East 518 596 35,000  Level FlightAware
01:03 42.2690 -67.7350 68° East 520 598 35,000  Level FlightAware
01:04 42.3020 -67.6220 68° East 520 598 35,000  Level FlightAware
01:05 42.3320 -67.5250 67° East 520 598 35,000  Level FlightAware
01:06 42.3770 -67.3710 68° East 520 598 35,000  Level FlightAware
01:06 42.4030 -67.2830 68° East 520 598 35,000  Level FlightAware
01:07 42.4390 -67.1650 68° East 520 598 35,000  Level FlightAware
01:08 42.4850 -67.0090 68° East 520 598 35,000  Level FlightAware
01:09 42.5140 -66.9130 68° East 520 598 35,000  Level FlightAware
01:09 42.5980 -66.6150 69° East 517 595 35,000 720 Level FlightAware
01:10 42.6500 -66.4340 69° East 508 585 36,300 1,260 Climbing FlightAware
01:11 42.6790 -66.3310 69° East 505 581 37,000 480 Climbing FlightAware
01:12 42.7160 -66.2010 69° East 500 575 37,000  Level FlightAware
01:12 42.7500 -66.0820 69° East 499 574 37,000  Level FlightAware
01:13 42.7820 -65.9660 69° East 502 578 37,000  Level FlightAware
01:14 42.8200 -65.8320 69° East 503 579 37,000  Level FlightAware
01:14 42.8520 -65.7140 70° East 503 579 37,000  Level FlightAware
01:15 42.8860 -65.5940 69° East 503 579 37,000  Level FlightAware
01:16 42.9210 -65.4630 70° East 505 581 37,000  Level FlightAware
01:17 42.9510 -65.3570 69° East 506 582 37,000  Level FlightAware
01:17 42.9880 -65.2190 70° East 508 585 37,000  Level FlightAware
01:18 43.0240 -65.0860 70° East 509 586 37,000  Level FlightAware
01:19 43.0620 -64.9470 69° East 510 587 37,000  Level FlightAware
01:19 43.0940 -64.8270 70° East 506 582 37,000  Level FlightAware
01:20 43.1270 -64.7040 70° East 506 582 37,000  Level FlightAware
01:21 43.1580 -64.5880 70° East 506 582 37,000  Level FlightAware
01:22 43.1940 -64.4490 70° East 503 579 37,000  Level FlightAware
01:22 43.2190 -64.3530 70° East 503 579 37,000  Level FlightAware
01:23 43.2470 -64.2440 71° East 503 579 37,000  Level FlightAware
01:24 43.2810 -64.1100 71° East 503 579 37,000  Level FlightAware
01:24 43.3050 -64.0120 71° East 503 579 37,000  Level FlightAware
01:25 43.3430 -63.8610 71° East 503 579 37,000  Level FlightAware
01:26 43.2570 -64.2050 251° West 499 574 37,000  Level FlightAware
01:27 43.2800 -64.1140 71° East 499 574 37,000  Level FlightAware
01:27 43.3110 -63.9910 71° East 499 574 37,000  Level FlightAware
01:28 43.3340 -63.8990 71° East 499 574 37,000  Level FlightAware
01:29 43.3650 -63.7740 71° East 499 574 37,000  Level FlightAware
01:29 43.3880 -63.6830 71° East 499 574 37,000  Level FlightAware
01:30 43.4200 -63.5550 71° East 499 574 37,000  Level FlightAware
01:31 43.4430 -63.4630 71° East 499 574 37,000  Level FlightAware
01:32 43.4750 -63.3320 71° East 499 574 37,000  Level FlightAware
01:32 43.5060 -63.2100 71° East 499 574 37,000  Level FlightAware
01:33 43.5290 -63.1180 71° East 499 574 37,000  Level FlightAware
01:34 43.5600 -62.9920 71° East 499 574 37,000  Level FlightAware
01:35 43.5840 -62.8970 71° East 499 574 37,000  Level FlightAware
01:35 43.6110 -62.7870 71° East 499 574 37,000  Level FlightAware
01:36 43.8333 -61.8000 71° East 510 587 37,000  Level Moncton Center
01:37 43.8833 -61.6167 69° East 510 587 37,000  Level Moncton Center
01:38 43.9167 -61.4333 76° East 510 587 37,000  Level Moncton Center
01:39 43.9500 -61.2333 77° East 510 587 37,000  Level Moncton Center
01:44 44.1990 -60.2730 77° East 510 587 37,000  Level FlightAware
01:45 44.2270 -60.1440 73° East 510 587 37,000  Level FlightAware
01:46 44.2560 -60.0130 73° East 512 589 37,000  Level FlightAware
01:46 44.2850 -59.8750 74° East 513 590 37,000  Level FlightAware
01:47 44.3120 -59.7500 73° East 514 592 37,000  Level FlightAware
01:48 44.3410 -59.6120 74° East 518 596 37,000  Level FlightAware
01:48 44.3690 -59.4790 74° East 520 598 37,000  Level FlightAware
01:49 44.4010 -59.3300 73° East 520 598 37,000  Level FlightAware
01:50 44.4250 -59.2140 74° East 520 598 37,000  Level FlightAware
01:50 44.4550 -59.0660 74° East 521 600 37,000  Level FlightAware
01:51 44.4820 -58.9360 74° East 524 603 37,000  Level FlightAware
01:52 44.5110 -58.7940 74° East 525 604 37,000  Level FlightAware
01:53 44.5380 -58.6590 74° East 525 604 37,000  Level FlightAware
01:53 44.5670 -58.5150 74° East 524 603 37,000  Level FlightAware
01:54 44.5940 -58.3830 74° East 520 598 37,000  Level FlightAware
01:55 44.6180 -58.2610 75° East 521 600 37,000  Level FlightAware
01:55 44.6480 -58.1080 75° East 523 602 37,000  Level FlightAware
01:56 44.6730 -57.9790 75° East 524 603 37,000  Level FlightAware
01:57 44.7020 -57.8340 74° East 527 606 37,000  Level FlightAware
01:57 44.7260 -57.7110 75° East 528 608 37,000  Level FlightAware
01:58 44.7550 -57.5560 75° East 528 608 37,000  Level FlightAware
01:59 44.7820 -57.4150 75° East 528 608 37,000  Level FlightAware
01:59 44.8050 -57.2950 75° East 528 608 37,000  Level FlightAware
02:00 44.8340 -57.1380 75° East 529 609 37,000  Level FlightAware
02:01 44.8580 -57.0100 75° East 532 612 37,000  Level FlightAware
02:02 44.8830 -56.8750 75° East 533 613 37,000  Level FlightAware
02:02 44.9070 -56.7450 75° East 533 613 37,000  Level FlightAware
02:03 44.9270 -56.6420 75° East 533 613 37,000  Level FlightAware
02:04 44.9530 -56.5040 75° East 533 613 37,000  Level FlightAware
02:04 44.9720 -56.4010 75° East 533 613 37,000  Level FlightAware
02:06 45.0250 -56.1240 75° East 533 613 37,000  Level FlightAware
02:07 45.0510 -55.9860 75° East 533 613 37,000  Level FlightAware
02:07 45.0720 -55.8770 75° East 533 613 37,000  Level FlightAware
02:08 45.1050 -55.6990 75° East 533 613 37,000  Level FlightAware
02:09 45.1240 -55.5990 75° East 533 613 37,000  Level FlightAware
02:10 45.1500 -55.4640 75° East 533 613 37,000  Level FlightAware
02:11 45.2010 -55.1880 75° East 533 613 37,000  Level FlightAware
02:12 45.2790 -54.7090 77° East 548 631 37,000  Level FlightAware
02:13 45.3050 -54.5700 75° East 548 631 37,000  Level FlightAware
02:14 45.3440 -54.3340 77° East 546 628 37,000  Level FlightAware
02:15 45.3680 -54.1940 76° East 547 629 37,000  Level FlightAware
02:15 45.3950 -54.0370 76° East 548 631 37,000  Level FlightAware
02:16 45.4200 -53.8940 76° East 548 631 37,000  Level FlightAware
02:17 45.4510 -53.7150 76° East 548 631 37,000  Level FlightAware
02:18 45.4800 -53.5260 78° East 544 626 37,000  Level FlightAware
02:19 45.5050 -53.3810 76° East 544 626 37,000  Level FlightAware
02:19 45.5250 -53.2680 76° East 544 626 37,000  Level FlightAware
02:20 45.5430 -53.1610 76° East 544 626 37,000  Level FlightAware
02:21 45.5690 -53.0100 76° East 544 626 37,000  Level FlightAware
02:21 45.5870 -52.9090 76° East 544 626 37,000  Level FlightAware
02:22 45.6120 -52.7640 76° East 544 626 37,000  Level FlightAware
02:23 45.6310 -52.6540 76° East 544 626 37,000  Level FlightAware
02:23 45.6560 -52.5120 76° East 544 626 37,000  Level FlightAware
02:24 45.6750 -52.4050 76° East 544 626 37,000  Level FlightAware
02:25 45.6990 -52.2680 76° East 544 626 37,000  Level FlightAware
02:26 45.7230 -52.1280 76° East 544 626 37,000  Level FlightAware
02:26 45.7420 -52.0180 76° East 544 626 37,000  Level FlightAware
02:27 45.7670 -51.8730 76° East 544 626 37,000  Level FlightAware
02:28 45.7870 -51.7620 75° East 544 626 37,000  Level FlightAware
02:28 45.8167 -51.2167 75° East 570 656 37,000  Level Gander Center
02:29 45.8500 -50.9833 78° East 570 656 37,000  Level Gander Center
02:30 45.8667 -50.7500 84° East 580 667 37,000  Level Gander Center
02:31 45.9000 -50.5500 76° East 580 667 37,000  Level Gander Center
02:32 45.9333 -50.3000 79° East 580 667 37,000  Level Gander Center
02:34 46.0000 -49.8667 77° East 580 667 37,000  Level Gander Center
02:35 46.0833 -49.6667 59° Northeast 580 667 37,000  Level Gander Center
02:36 46.1667 -49.4667 59° Northeast 580 667 37,000  Level Gander Center
02:37 46.2333 -49.2333 67° East 570 656 37,000  Level Gander Center
02:38 46.3000 -49.0500 62° Northeast 570 656 37,000  Level Gander Center
02:39 46.3667 -48.8333 66° East 570 656 37,000  Level Gander Center
02:41 46.5167 -48.4167 62° Northeast 580 667 37,000  Level Gander Center
02:42 46.5833 -48.2167 64° Northeast 580 667 37,000  Level Gander Center
02:43 46.6667 -48.0000 61° Northeast 590 679 37,000  Level Gander Center
02:44 46.7333 -47.7833 66° East 590 679 37,000  Level Gander Center
02:45 46.8000 -47.5833 64° Northeast 570 656 37,000  Level Gander Center
02:48 46.9833 -47.0333 64° Northeast 550 633 37,000  Level Gander Center
02:49 47.0500 -46.8000 67° East 590 679 37,000  Level Gander Center
02:51 47.1515 -46.5221 62° Northeast  Level FlightAware Approximate
02:58 47.5826 -45.2046 65° Northeast  Level FlightAware Approximate
02:59 47.6402 -45.0128 66° East  Level FlightAware Approximate
03:00 47.6976 -44.8206 66° East  Level FlightAware Approximate
03:01 47.7546 -44.6281 66° East  Level FlightAware Approximate
03:02 47.8113 -44.4351 66° East  Level FlightAware Approximate
03:03 47.8663 -44.2408 67° East  Level FlightAware Approximate
03:04 47.9209 -44.0460 67° East  Level FlightAware Approximate
03:05 47.9751 -43.8508 67° East  Level FlightAware Approximate
03:06 48.0290 -43.6552 68° East  Level FlightAware Approximate
03:07 48.0825 -43.4591 68° East  Level FlightAware Approximate
03:08 48.1363 -43.2631 67° East  Level FlightAware Approximate
03:09 48.1906 -43.0671 67° East  Level FlightAware Approximate
03:10 48.2445 -42.8707 68° East  Level FlightAware Approximate
03:11 48.2982 -42.6739 68° East  Level FlightAware Approximate
03:12 48.3515 -42.4767 68° East  Level FlightAware Approximate
03:13 48.4045 -42.2791 68° East  Level FlightAware Approximate
03:14 48.4581 -42.0817 68° East  Level FlightAware Approximate
03:15 48.5117 -41.8840 68° East  Level FlightAware Approximate
03:16 48.5649 -41.6860 68° East  Level FlightAware Approximate
03:17 48.6178 -41.4875 68° East  Level FlightAware Approximate
03:18 48.6704 -41.2886 68° East  Level FlightAware Approximate
03:19 48.7226 -41.0893 68° East  Level FlightAware Approximate
03:20 48.7744 -40.8895 68° East  Level FlightAware Approximate
03:21 48.8260 -40.6894 69° East  Level FlightAware Approximate
03:22 48.8772 -40.4888 69° East  Level FlightAware Approximate
03:23 48.9280 -40.2879 69° East  Level FlightAware Approximate
03:24 48.9785 -40.0865 69° East  Level FlightAware Approximate
03:25 49.0290 -39.8850 69° East  Level FlightAware Approximate
03:26 49.0795 -39.6832 69° East  Level FlightAware Approximate
03:27 49.1297 -39.4810 69° East  Level FlightAware Approximate
03:28 49.1795 -39.2785 69° East  Level FlightAware Approximate
03:29 49.2290 -39.0755 69° East  Level FlightAware Approximate
03:30 49.2781 -38.8721 70° East  Level FlightAware Approximate
03:31 49.3268 -38.6683 70° East  Level FlightAware Approximate
03:32 49.3752 -38.4641 70° East  Level FlightAware Approximate
03:33 49.4233 -38.2595 70° East  Level FlightAware Approximate
03:34 49.4709 -38.0546 70° East  Level FlightAware Approximate
03:35 49.5182 -37.8492 70° East  Level FlightAware Approximate
03:36 49.5652 -37.6434 71° East  Level FlightAware Approximate
03:37 49.6117 -37.4372 71° East  Level FlightAware Approximate
03:38 49.6580 -37.2306 71° East  Level FlightAware Approximate
03:39 49.7038 -37.0237 71° East  Level FlightAware Approximate
03:40 49.7493 -36.8163 71° East  Level FlightAware Approximate
03:41 49.7944 -36.6086 71° East  Level FlightAware Approximate
03:42 49.8391 -36.4005 71° East  Level FlightAware Approximate
03:43 49.8834 -36.1920 72° East  Level FlightAware Approximate
03:44 49.9274 -35.9831 72° East  Level FlightAware Approximate
03:45 49.9710 -35.7738 72° East  Level FlightAware Approximate
03:46 50.0143 -35.5642 72° East  Level FlightAware Approximate
03:47 50.0571 -35.3541 72° East  Level FlightAware Approximate
03:48 50.0996 -35.1437 72° East  Level FlightAware Approximate
03:49 50.1417 -34.9330 73° East  Level FlightAware Approximate
03:50 50.1834 -34.7218 73° East  Level FlightAware Approximate
03:51 50.2247 -34.5103 73° East  Level FlightAware Approximate
03:52 50.2656 -34.2984 73° East  Level FlightAware Approximate
03:53 50.3062 -34.0862 73° East  Level FlightAware Approximate
03:54 50.3463 -33.8736 73° East  Level FlightAware Approximate
03:55 50.3861 -33.6607 74° East  Level FlightAware Approximate
03:56 50.4255 -33.4473 74° East  Level FlightAware Approximate
03:57 50.4645 -33.2337 74° East  Level FlightAware Approximate
03:58 50.5031 -33.0197 74° East  Level FlightAware Approximate
03:59 50.5413 -32.8053 74° East  Level FlightAware Approximate
04:00 50.5791 -32.5906 74° East  Level FlightAware Approximate
04:01 50.6166 -32.3756 75° East  Level FlightAware Approximate
04:02 50.6536 -32.1602 75° East  Level FlightAware Approximate
04:03 50.6902 -31.9444 75° East  Level FlightAware Approximate
04:04 50.7265 -31.7284 75° East  Level FlightAware Approximate
04:05 50.7623 -31.5120 75° East  Level FlightAware Approximate
04:06 50.7977 -31.2952 75° East  Level FlightAware Approximate
04:07 50.8327 -31.0782 76° East  Level FlightAware Approximate
04:08 50.8674 -30.8608 76° East  Level FlightAware Approximate
04:09 50.9016 -30.6431 76° East  Level FlightAware Approximate
04:10 50.9354 -30.4251 76° East  Level FlightAware Approximate
04:11 50.9688 -30.2068 76° East  Level FlightAware Approximate
04:12 51.0005 -29.9878 86° East  Level FlightAware Approximate
04:13 51.0099 -29.7633 86° East  Level FlightAware Approximate
04:14 51.0188 -29.5388 86° East  Level FlightAware Approximate
04:15 51.0273 -29.3142 86° East  Level FlightAware Approximate
04:16 51.0354 -29.0895 87° East  Level FlightAware Approximate
04:17 51.0430 -28.8647 87° East  Level FlightAware Approximate
04:18 51.0502 -28.6399 87° East  Level FlightAware Approximate
04:19 51.0570 -28.4150 87° East  Level FlightAware Approximate
04:20 51.0634 -28.1900 87° East  Level FlightAware Approximate
04:21 51.0693 -27.9650 88° East  Level FlightAware Approximate
04:22 51.0747 -27.7399 88° East  Level FlightAware Approximate
04:23 51.0798 -27.5147 88° East  Level FlightAware Approximate
04:24 51.0844 -27.2895 88° East  Level FlightAware Approximate
04:25 51.0886 -27.0643 88° East  Level FlightAware Approximate
04:26 51.0924 -26.8390 88° East  Level FlightAware Approximate
04:27 51.0957 -26.6137 89° East  Level FlightAware Approximate
04:28 51.0986 -26.3884 89° East  Level FlightAware Approximate
04:29 51.1010 -26.1630 89° East  Level FlightAware Approximate
04:30 51.1030 -25.9376 89° East  Level FlightAware Approximate
04:31 51.1046 -25.7122 89° East  Level FlightAware Approximate
04:32 51.1058 -25.4868 89° East  Level FlightAware Approximate
04:33 51.1065 -25.2614 90° East  Level FlightAware Approximate
04:34 51.1068 -25.0359 90° East  Level FlightAware Approximate
04:35 51.1066 -24.8105 90° East  Level FlightAware Approximate
04:36 51.1060 -24.5851 90° East  Level FlightAware Approximate
04:37 51.1050 -24.3597 90° East  Level FlightAware Approximate
04:38 51.1036 -24.1343 90° East  Level FlightAware Approximate
04:39 51.1017 -23.9089 91° East  Level FlightAware Approximate
04:40 51.0994 -23.6835 91° East  Level FlightAware Approximate
04:41 51.0966 -23.4582 91° East  Level FlightAware Approximate
04:42 51.0935 -23.2328 91° East  Level FlightAware Approximate
04:43 51.0899 -23.0075 91° East  Level FlightAware Approximate
04:44 51.0858 -22.7823 92° East  Level FlightAware Approximate
04:45 51.0813 -22.5571 92° East  Level FlightAware Approximate
04:46 51.0764 -22.3319 92° East  Level FlightAware Approximate
04:47 51.0711 -22.1068 92° East  Level FlightAware Approximate
04:48 51.0653 -21.8818 92° East  Level FlightAware Approximate
04:49 51.0591 -21.6568 92° East  Level FlightAware Approximate
04:50 51.0524 -21.4318 93° East  Level FlightAware Approximate
04:51 51.0454 -21.2069 93° East  Level FlightAware Approximate
04:52 51.0379 -20.9821 93° East  Level FlightAware Approximate
04:53 51.0299 -20.7574 93° East  Level FlightAware Approximate
04:54 51.0216 -20.5328 93° East  Level FlightAware Approximate
04:55 51.0128 -20.3082 93° East  Level FlightAware Approximate
04:56 51.0036 -20.0838 94° East  Level FlightAware Approximate
04:57 51.0160 -19.8613 80° East  Level FlightAware Approximate
04:58 51.0411 -19.6398 80° East  Level FlightAware Approximate
04:59 51.0658 -19.4181 80° East  Level FlightAware Approximate
05:00 51.0901 -19.1962 80° East  Level FlightAware Approximate
05:01 51.1140 -18.9740 80° East  Level FlightAware Approximate
05:02 51.1374 -18.7516 80° East  Level FlightAware Approximate
05:03 51.1605 -18.5290 81° East  Level FlightAware Approximate
05:04 51.1831 -18.3061 81° East  Level FlightAware Approximate
05:05 51.2053 -18.0830 81° East  Level FlightAware Approximate
05:06 51.2270 -17.8598 81° East  Level FlightAware Approximate
05:07 51.2484 -17.6363 81° East  Level FlightAware Approximate
05:08 51.2693 -17.4126 81° East  Level FlightAware Approximate
05:09 51.2897 -17.1887 82° East  Level FlightAware Approximate
05:10 51.3098 -16.9646 82° East  Level FlightAware Approximate
05:11 51.3294 -16.7403 82° East  Level FlightAware Approximate
05:12 51.3486 -16.5158 82° East  Level FlightAware Approximate
05:13 51.3674 -16.2911 82° East  Level FlightAware Approximate
05:14 51.3857 -16.0663 82° East  Level FlightAware Approximate
05:15 51.4037 -15.8413 83° East  Level FlightAware Approximate
05:16 51.4211 -15.6161 83° East  Level FlightAware Approximate
05:17 51.4382 -15.3907 83° East  Level FlightAware Approximate
05:18 51.4548 -15.1652 83° East  Level FlightAware Approximate
05:19 51.4701 -14.9393 85° East  Level FlightAware Approximate
05:19 51.4360 -11.1470 85° East 568 654 37,000  Level FlightAware
05:19 51.4550 -10.9510 81° East 567 652 37,000  Level FlightAware
05:20 51.4826 -14.7130 85° East  Level FlightAware Approximate
05:20 51.4690 -10.7970 82° East 567 652 37,000  Level FlightAware
05:21 51.4900 -10.5690 81° East 566 651 37,000  Level FlightAware
05:22 51.5070 -10.3810 82° East 566 651 37,000  Level FlightAware
05:22 51.5220 -10.2120 82° East 566 651 37,000  Level FlightAware
05:23 51.5360 -10.0510 82° East 565 650 37,000  Level FlightAware
05:24 51.5530 -9.8480 82° East 565 650 37,000  Level FlightAware
05:24 51.5670 -9.6810 82° East 565 650 37,000  Level FlightAware
05:25 51.5750 -9.5780 83° East 564 649 37,000  Level FlightAware
05:26 51.5990 -9.2790 83° East 564 649 37,000  Level FlightAware
05:27 51.6140 -9.0950 82° East 563 648 37,000  Level FlightAware
05:27 51.6270 -8.9280 83° East 564 649 37,000  Level FlightAware
05:28 51.6417 -8.7270 83° East 494 568 37,000  Level FlightAware UK
05:28 51.6410 -8.7400 83° East 564 649 37,000  Level FlightAware
05:29 51.6510 -8.6025 83° East 492 566 37,000  Level FlightAware UK
05:29 51.6530 -8.5760 83° East 562 647 37,000  Level FlightAware
05:30 51.6670 -8.3800 83° East 563 648 37,000  Level FlightAware
05:30 51.6775 -8.2277 83° East 494 568 37,000  Level FlightAware UK
05:30 51.6770 -8.2370 83° East 563 648 37,000 -420 Level FlightAware
05:31 51.6890 -8.0660 83° East 559 643 36,700 -900 Descending FlightAware
05:32 51.7020 -7.8650 84° East 559 643 35,800 -1,860 Descending FlightAware
05:32 51.7140 -7.6950 84° East 582 670 34,100 -2,580 Descending FlightAware
05:32 51.7148 -7.6796 84° East 486 559 34,000 -960 Descending FlightAware UK
05:33 51.7236 -7.5486 84° East 484 557 33,600 -600 Descending FlightAware UK
05:33 51.7250 -7.5170 84° East 576 663 33,600 -420 Level FlightAware
05:34 51.7350 -7.3580 84° East 566 651 33,300 -540 Descending FlightAware
05:34 51.7450 -7.1990 84° East 564 649 33,000 -240 Descending FlightAware
05:35 51.7572 -6.9941 84° East 470 541 33,000  Level FlightAware UK
05:36 51.7646 -6.8688 85° East 470 541 33,000  Level FlightAware UK
05:36 51.7650 -6.8630 85° East 563 648 33,000  Level FlightAware
05:36 51.7760 -6.6710 85° East 563 648 33,000  Level FlightAware
05:37 51.7769 -6.4188 85° East 472 543 33,000  Level FlightAware UK
05:37 51.7770 -6.4170 85° East 559 643 33,000  Level FlightAware
05:38 51.7703 -6.2692 85° East 472 543 33,000  Level FlightAware UK
05:38 51.7710 -6.2680 85° East 558 642 33,000  Level FlightAware
05:39 51.7602 -6.0211 85° East 472 543 33,000  Level FlightAware UK
05:39 51.7600 -6.0140 85° East 556 640 33,000  Level FlightAware
05:40 51.7530 -5.8630 94° East 554 638 33,000  Level FlightAware
05:40 51.7450 -5.6790 94° East 554 638 33,000  Level FlightAware
05:41 51.7376 -5.5265 94° East 472 543 33,000  Level FlightAware UK
05:41 51.7370 -5.5030 94° East 554 638 33,000  Level FlightAware
05:42 51.7280 -5.3300 95° East 553 636 33,000  Level FlightAware
05:43 51.7198 -5.1573 95° East 470 541 33,000  Level FlightAware UK
05:43 51.7200 -5.1570 95° East 552 635 33,000 -360 Level FlightAware
05:43 51.7119 -5.0102 95° East 470 541 32,800 -480 Descending FlightAware UK
05:43 51.7110 -4.9830 95° East 550 633 32,700 -1,020 Descending FlightAware
05:44 51.7020 -4.8130 95° East 554 638 32,000 -540 Descending FlightAware
05:45 51.6930 -4.6330 95° East 556 640 32,000  Level FlightAware
05:45 51.6853 -4.4930 95° East 474 545 32,000  Level FlightAware UK
05:45 51.6840 -4.4600 95° East 554 638 32,000  Level FlightAware
05:46 51.6708 -4.2213 95° East 462 532 32,000  Level FlightAware UK
05:46 51.6710 -4.2340 95° East 542 624 32,000  Level FlightAware
05:47 51.6510 -4.0470 100° East 486 559 32,000 -360 Level FlightAware
05:48 51.6340 -3.9130 102° East 470 541 31,500 -840 Descending FlightAware
05:49 51.6140 -3.7560 102° East 459 528 30,800 -1,380 Descending FlightAware
05:49 51.5967 -3.6160 102° East 378 435 29,600 -1,740 Descending FlightAware UK
05:49 51.5980 -3.6240 102° East 452 520 29,700 -1,500 Climbing FlightAware
05:50 51.5816 -3.4992 102° East 372 428 28,700 -1,740 Descending FlightAware UK
05:50 51.5707 -3.4010 100° East 366 421 27,800 -1,500 Descending FlightAware UK
05:51 51.5627 -3.3019 97° East 358 412 27,200 -600 Descending FlightAware UK
05:51 51.5670 -3.3510 97° East 450 518 27,500 -420 Climbing FlightAware
05:52 51.5517 -3.1657 97° East 354 407 26,900 -720 Descending FlightAware UK
05:52 51.5500 -3.1530 97° East 439 505 27,000 120 Climbing FlightAware
05:52 51.5390 -3.0260 98° East 438 504 27,000  Level FlightAware
05:53 51.5260 -2.8990 99° East 435 501 27,000 -540 Level FlightAware
05:53 51.5166 -2.8012 99° East 346 398 26,400 -1,200 Descending FlightAware UK
05:54 51.5120 -2.7570 99° East 426 490 26,100 -600 Descending FlightAware
05:54 51.5035 -2.6653 98° East 422 486 26,000 -120 Descending FlightAware ADS-B
05:55 51.4925 -2.5529 99° East 422 486 26,000 -360 Level FlightAware ADS-B
05:55 51.4821 -2.4474 99° East 422 486 25,600 -960 Descending FlightAware ADS-B
05:56 51.4729 -2.3541 99° East 418 481 25,000 -600 Descending FlightAware ADS-B
05:56 51.4634 -2.2596 99° East 415 478 25,000  Level FlightAware ADS-B
05:57 51.4537 -2.1641 99° East 413 475 25,000 -300 Level FlightAware ADS-B
05:57 51.4437 -2.0647 99° East 412 474 24,700 -840 Descending FlightAware ADS-B
05:58 51.4432 -2.0115 91° East 410 472 24,300 -960 Descending FlightAware ADS-B
05:58 51.4466 -1.9907 75° East 403 464 24,300  Level FlightAware ADS-B
05:58 51.4495 -1.9792 68° East 398 458 24,300 -480 Level FlightAware ADS-B
05:58 51.4573 -1.9570 61° Northeast 391 450 24,200 -360 Descending FlightAware ADS-B
05:58 51.4672 -1.9380 50° Northeast 378 435 24,200  Level FlightAware ADS-B
05:58 51.4753 -1.9267 41° Northeast 370 426 24,200  Level FlightAware ADS-B
05:58 51.4845 -1.9170 33° Northeast 360 414 24,200  Level FlightAware ADS-B
05:59 51.4906 -1.9120 27° Northeast 352 405 24,200  Level FlightAware ADS-B
05:59 51.5068 -1.9032 19° North 339 390 24,200 -300 Level FlightAware ADS-B
05:59 51.5204 -1.9002 North 327 376 24,100 -420 Descending FlightAware ADS-B
05:59 51.5285 -1.9000 North 321 369 24,100 -600 Level FlightAware ADS-B
05:59 51.5364 -1.9011 355° North 316 364 24,000 -600 Descending FlightAware ADS-B
05:59 51.5445 -1.9035 349° North 309 356 24,000 -360 Level FlightAware ADS-B
05:59 51.5600 -1.9116 342° North 301 346 23,900 -900 Descending FlightAware ADS-B
06:00 51.5717 -1.9216 332° Northwest 291 335 23,700 -1,080 Descending FlightAware ADS-B
06:00 51.5790 -1.9301 324° Northwest 283 326 23,600 -780 Descending FlightAware ADS-B
06:00 51.5872 -1.9424 317° Northwest 273 314 23,500 -840 Descending FlightAware ADS-B
06:00 51.5924 -1.9524 310° West 266 306 23,400 -1,320 Descending FlightAware ADS-B
06:00 51.5973 -1.9640 304° West 261 300 23,200 -1,320 Descending FlightAware ADS-B
06:00 51.6010 -1.9747 299° West 257 296 23,100 -1,020 Descending FlightAware ADS-B
06:00 51.6058 -1.9945 291° West 249 287 22,900 -1,080 Descending FlightAware ADS-B
06:00 51.6085 -2.0145 282° West 245 282 22,700 -900 Descending FlightAware ADS-B
06:01 51.6105 -2.0324 280° West 246 283 22,600 -1,020 Descending FlightAware ADS-B
06:01 51.6170 -2.0573 293° West 249 287 22,300 -1,020 Descending FlightAware ADS-B
06:01 51.6208 -2.0749 289° West 244 281 22,200 -900 Descending FlightAware ADS-B
06:01 51.6280 -2.1151 286° West 239 275 21,800 -1,080 Descending FlightAware ADS-B
06:02 51.6358 -2.1697 283° West 238 274 21,200 -1,080 Descending FlightAware ADS-B
06:02 51.6425 -2.2219 282° West 239 275 20,700 -960 Descending FlightAware ADS-B
06:03 51.6438 -2.2376 278° West 236 272 20,600 -840 Descending FlightAware ADS-B
06:03 51.6431 -2.2490 264° West 233 268 20,500 -1,140 Descending FlightAware ADS-B
06:03 51.6417 -2.2562 253° West 233 268 20,400 -1,200 Descending FlightAware ADS-B
06:03 51.6392 -2.2643 243° Southwest 234 269 20,300 -720 Descending FlightAware ADS-B
06:03 51.6367 -2.2696 233° Southwest 236 272 20,300 -720 Level FlightAware ADS-B
06:03 51.6328 -2.2758 225° Southwest 241 277 20,200 -1,200 Descending FlightAware ADS-B
06:03 51.6283 -2.2806 214° Southwest 247 284 20,100 -960 Descending FlightAware ADS-B
06:03 51.6194 -2.2863 202° Southwest 259 298 20,000 -1,080 Descending FlightAware ADS-B
06:03 51.6076 -2.2880 185° South 275 316 19,800 -1,020 Descending FlightAware ADS-B
06:04 51.5971 -2.2847 169° South 292 336 19,700 -960 Descending FlightAware ADS-B
06:04 51.5917 -2.2815 160° South 297 342 19,600 -1,200 Descending FlightAware ADS-B
06:04 51.5595 -2.2548 153° Southeast 301 346 19,100 -1,200 Descending FlightAware ADS-B
06:05 51.5222 -2.2215 151° Southeast 301 346 18,500 -1,320 Descending FlightAware ADS-B
06:05 51.4898 -2.1928 151° Southeast 306 352 17,900 -1,500 Descending FlightAware ADS-B
06:05 51.4834 -2.1849 143° Southeast 314 361 17,700 -1,380 Descending FlightAware ADS-B
06:05 51.4799 -2.1797 137° Southeast 321 369 17,700 -720 Level FlightAware ADS-B
06:05 51.4740 -2.1682 129° Southeast 330 380 17,600 -1,200 Descending FlightAware ADS-B
06:05 51.4707 -2.1598 122° Southeast 334 384 17,500 -1,680 Descending FlightAware ADS-B
06:06 51.4614 -2.1290 116° Southeast 344 396 17,100 -1,500 Descending FlightAware ADS-B
06:06 51.4413 -2.0565 114° Southeast 346 398 16,400 -1,200 Descending FlightAware ADS-B
06:07 51.4208 -1.9858 115° Southeast 335 386 15,900 -900 Descending FlightAware ADS-B
06:07 51.4054 -1.9334 115° Southeast 328 377 15,600 -780 Descending FlightAware ADS-B
06:07 51.4017 -1.9175 110° East 328 377 15,500 -660 Descending FlightAware ADS-B
06:07 51.3971 -1.8894 105° East 327 376 15,400 -1,020 Descending FlightAware ADS-B
06:08 51.3875 -1.8173 102° East 322 371 14,800 -960 Descending FlightAware ADS-B
06:08 51.3778 -1.7426 102° East 312 359 14,400 -780 Descending FlightAware ADS-B
06:09 51.3687 -1.6713 102° East 311 358 14,000 -420 Descending FlightAware ADS-B
06:09 51.3597 -1.6021 102° East 316 364 14,000  Level FlightAware ADS-B
06:10 51.3507 -1.5327 102° East 314 361 14,000  Level FlightAware ADS-B
06:10 51.3418 -1.4636 102° East 312 359 14,000  Level FlightAware ADS-B
06:11 51.3327 -1.3950 102° East 313 360 14,000  Level FlightAware ADS-B
06:11 51.3234 -1.3247 102° East 315 362 14,000  Level FlightAware ADS-B
06:12 51.3141 -1.2559 102° East 317 365 14,000 -180 Level FlightAware ADS-B
06:12 51.3090 -1.2135 101° East 321 369 13,900 -420 Descending FlightAware ADS-B
06:13 51.3066 -1.1787 96° East 322 371 13,800 -660 Descending FlightAware ADS-B
06:13 51.3057 -1.1478 93° East 321 369 13,600 -960 Descending FlightAware ADS-B
06:13 51.3057 -1.0732 90° East 319 367 13,100 -1,080 Descending FlightAware ADS-B
06:14 51.3056 -1.0019 90° East 314 361 12,500 -1,020 Descending FlightAware ADS-B
06:14 51.3056 -0.9351 90° East 312 359 12,100 -900 Descending FlightAware ADS-B
06:15 51.3056 -0.8654 90° East 314 361 11,600 -1,020 Descending FlightAware ADS-B
06:15 51.3056 -0.7984 90° East 315 362 11,100 -600 Descending FlightAware ADS-B
06:16 51.3056 -0.7266 90° East 312 359 11,000 -120 Descending FlightAware ADS-B
06:16 51.3055 -0.6502 90° East 310 357 11,000  Level FlightAware ADS-B
06:17 51.3054 -0.5807 90° East 310 357 11,000  Level FlightAware ADS-B
06:17 51.3053 -0.5146 90° East 309 356 11,000  Level FlightAware ADS-B
06:18 51.3052 -0.4619 90° East 309 356 11,000  Level FlightAware ADS-B
06:18 51.3059 -0.4445 86° East 310 357 11,000  Level FlightAware ADS-B
06:18 51.3073 -0.4291 82° East 312 359 11,000  Level FlightAware ADS-B
06:18 51.3121 -0.3948 77° East 313 360 11,000  Level FlightAware ADS-B
06:19 51.3191 -0.3355 79° East 312 359 11,000  Level FlightAware ADS-B
06:19 51.3198 -0.3214 85° East 309 356 11,000  Level FlightAware ADS-B
06:19 51.3193 -0.3115 95° East 306 352 11,000  Level FlightAware ADS-B
06:19 51.3179 -0.3024 104° East 301 346 11,000  Level FlightAware ADS-B
06:19 51.3132 -0.2859 114° Southeast 288 331 11,000  Level FlightAware ADS-B
06:19 51.3098 -0.2780 125° Southeast 283 326 11,000  Level FlightAware ADS-B
06:19 51.3036 -0.2677 134° Southeast 274 315 11,000  Level FlightAware ADS-B
06:19 51.3001 -0.2633 142° Southeast 267 307 11,000  Level FlightAware ADS-B
06:19 51.2932 -0.2570 150° Southeast 257 296 11,000  Level FlightAware ADS-B
06:19 51.2876 -0.2536 159° South 248 285 11,000  Level FlightAware ADS-B
06:20 51.2823 -0.2515 166° South 243 280 11,000  Level FlightAware ADS-B
06:20 51.2719 -0.2502 176° South 233 268 11,000  Level FlightAware ADS-B
06:20 51.2676 -0.2508 185° South 230 265 11,000  Level FlightAware ADS-B
06:20 51.2566 -0.2552 194° South 222 255 11,000  Level FlightAware ADS-B
06:20 51.2487 -0.2611 205° Southwest 217 250 11,000  Level FlightAware ADS-B
06:20 51.2451 -0.2649 213° Southwest 215 247 11,000  Level FlightAware ADS-B
06:20 51.2420 -0.2688 218° Southwest 213 245 11,000  Level FlightAware ADS-B
06:20 51.2362 -0.2780 225° Southwest 210 242 11,000  Level FlightAware ADS-B
06:20 51.2322 -0.2871 235° Southwest 208 239 11,000  Level FlightAware ADS-B
06:21 51.2294 -0.2960 243° Southwest 208 239 11,000  Level FlightAware ADS-B
06:21 51.2279 -0.3024 249° West 208 239 11,000  Level FlightAware ADS-B
06:21 51.2263 -0.3138 257° West 209 241 11,000  Level FlightAware ADS-B
06:21 51.2258 -0.3271 267° West 213 245 11,000  Level FlightAware ADS-B
06:21 51.2260 -0.3328 273° West 215 247 11,000  Level FlightAware ADS-B
06:21 51.2267 -0.3397 279° West 217 250 11,000  Level FlightAware ADS-B
06:21 51.2287 -0.3506 286° West 222 255 11,000  Level FlightAware ADS-B
06:21 51.2305 -0.3573 293° West 226 260 11,000  Level FlightAware ADS-B
06:21 51.2326 -0.3635 298° West 230 265 11,000  Level FlightAware ADS-B
06:21 51.2363 -0.3720 305° West 237 273 11,000  Level FlightAware ADS-B
06:22 51.2442 -0.3844 316° Northwest 251 289 11,000  Level FlightAware ADS-B
06:22 51.2577 -0.3981 328° Northwest 258 297 11,000  Level FlightAware ADS-B
06:22 51.2644 -0.4057 325° Northwest 254 292 11,000  Level FlightAware ADS-B
06:22 51.2790 -0.4227 324° Northwest 254 292 11,000  Level FlightAware ADS-B
06:23 51.3055 -0.4499 327° Northwest 256 295 11,000  Level FlightAware ADS-B
06:23 51.3114 -0.4543 335° Northwest 265 305 11,000  Level FlightAware ADS-B
06:23 51.3188 -0.4576 344° North 271 312 11,000  Level FlightAware ADS-B
06:23 51.3304 -0.4588 356° North 283 326 11,000  Level FlightAware ADS-B
06:23 51.3372 -0.4578 North 289 333 11,000  Level FlightAware ADS-B
06:23 51.3428 -0.4562 11° North 293 337 11,000  Level FlightAware ADS-B
06:23 51.3517 -0.4514 18° North 303 349 11,000 -600 Level FlightAware ADS-B
06:23 51.3558 -0.4482 26° Northeast 307 353 10,900 -1,380 Descending FlightAware ADS-B
06:23 51.3632 -0.4403 34° Northeast 312 359 10,800 -600 Descending FlightAware ADS-B
06:23 51.3685 -0.4324 43° Northeast 315 362 10,800 -780 Level FlightAware ADS-B
06:24 51.3716 -0.4263 51° Northeast 317 365 10,700 -780 Descending FlightAware ADS-B
06:24 51.3755 -0.4164 58° Northeast 317 365 10,700 -600 Level FlightAware ADS-B
06:24 51.3784 -0.4061 66° East 317 365 10,600 -720 Descending FlightAware ADS-B
06:24 51.3800 -0.3971 74° East 315 362 10,600 -780 Level FlightAware ADS-B
06:24 51.3810 -0.3876 80° East 312 359 10,500 -1,200 Descending FlightAware ADS-B
06:24 51.3811 -0.3748 89° East 307 353 10,400 -540 Descending FlightAware ADS-B
06:24 51.3801 -0.3624 97° East 300 345 10,400 -600 Level FlightAware ADS-B
06:24 51.3785 -0.3532 106° East 293 337 10,300 -1,200 Descending FlightAware ADS-B
06:24 51.3752 -0.3426 117° Southeast 281 323 10,200 -600 Descending FlightAware ADS-B
06:24 51.3715 -0.3343 126° Southeast 273 314 10,200 -720 Level FlightAware ADS-B
06:24 51.3678 -0.3280 133° Southeast 265 305 10,100 -1,140 Descending FlightAware ADS-B
06:24 51.3612 -0.3201 143° Southeast 252 290 10,000 -600 Descending FlightAware ADS-B
06:25 51.3569 -0.3167 154° Southeast 242 278 10,000  Level FlightAware ADS-B
06:25 51.3521 -0.3143 163° South 234 269 10,000  Level FlightAware ADS-B
06:25 51.3448 -0.3133 175° South 223 257 10,000  Level FlightAware ADS-B
06:25 51.3391 -0.3146 189° South 215 247 10,000  Level FlightAware ADS-B
06:25 51.3350 -0.3170 200° South 211 243 10,000  Level FlightAware ADS-B
06:25 51.3317 -0.3201 210° Southwest 206 237 10,000  Level FlightAware ADS-B
06:25 51.3296 -0.3226 218° Southwest 205 236 10,000  Level FlightAware ADS-B
06:25 51.3270 -0.3269 226° Southwest 203 234 10,000  Level FlightAware ADS-B
06:25 51.3253 -0.3306 234° Southwest 203 234 10,000  Level FlightAware ADS-B
06:25 51.3230 -0.3378 243° Southwest 205 236 10,000  Level FlightAware ADS-B
06:25 51.3208 -0.3495 253° West 207 238 10,000  Level FlightAware ADS-B
06:26 51.3181 -0.3770 261° West 212 244 10,000  Level FlightAware ADS-B
06:26 51.3181 -0.3856 270° West 215 247 10,000  Level FlightAware ADS-B
06:26 51.3185 -0.3907 277° West 219 252 10,000  Level FlightAware ADS-B
06:26 51.3193 -0.3957 284° West 223 257 10,000  Level FlightAware ADS-B
06:26 51.3210 -0.4022 293° West 228 262 10,000  Level FlightAware ADS-B
06:26 51.3234 -0.4087 301° West 236 272 10,000  Level FlightAware ADS-B
06:26 51.3273 -0.4160 311° West 243 280 10,000  Level FlightAware ADS-B
06:26 51.3305 -0.4205 318° Northwest 250 288 10,000 -1,020 Level FlightAware ADS-B
06:26 51.3390 -0.4283 330° Northwest 261 300 9,800 -1,320 Descending FlightAware ADS-B
06:26 51.3462 -0.4317 343° North 272 313 9,700 -720 Descending FlightAware ADS-B
06:26 51.3499 -0.4327 350° North 277 319 9,700 -900 Level FlightAware ADS-B
06:27 51.3543 -0.4331 357° North 282 325 9,600 -900 Descending FlightAware ADS-B
06:27 51.3596 -0.4328 North 285 328 9,600 -900 Level FlightAware ADS-B
06:27 51.3646 -0.4314 North 289 333 9,500 -780 Descending FlightAware ADS-B
06:27 51.3700 -0.4289 16° North 293 337 9,500 -780 Level FlightAware ADS-B
06:27 51.3745 -0.4259 22° Northeast 296 341 9,400 -1,500 Descending FlightAware ADS-B
06:27 51.3789 -0.4222 28° Northeast 298 343 9,300 -720 Descending FlightAware ADS-B
06:27 51.3847 -0.4155 36° Northeast 300 345 9,300 -780 Level FlightAware ADS-B
06:27 51.3884 -0.4101 42° Northeast 302 348 9,200 -1,140 Descending FlightAware ADS-B
06:27 51.3949 -0.3967 52° Northeast 303 349 9,100 -1,080 Descending FlightAware ADS-B
06:27 51.4001 -0.3785 65° Northeast 301 346 8,900 -960 Descending FlightAware ADS-B
06:27 51.4014 -0.3703 76° East 299 344 8,900 -780 Level FlightAware ADS-B
06:27 51.4022 -0.3603 83° East 298 343 8,800 -1,500 Descending FlightAware ADS-B
06:27 51.4023 -0.3525 89° East 295 339 8,700 -1,680 Descending FlightAware ADS-B
06:28 51.4011 -0.3383 98° East 292 336 8,500 -1,200 Descending FlightAware ADS-B
06:28 51.3982 -0.3223 106° East 288 331 8,400 -1,200 Descending FlightAware ADS-B
06:28 51.3906 -0.2879 109° East 287 330 8,000 -1,500 Descending FlightAware ADS-B
06:28 51.3877 -0.2738 108° East 290 334 7,800 -1,860 Descending FlightAware ADS-B
06:28 51.3858 -0.2599 102° East 294 338 7,600 -1,140 Descending FlightAware ADS-B
06:28 51.3852 -0.2502 96° East 297 342 7,600 -780 Level FlightAware ADS-B
06:28 51.3851 -0.2419 91° East 296 341 7,500 -660 Descending FlightAware ADS-B
06:29 51.3856 -0.2084 89° East 279 321 7,400 -600 Descending FlightAware ADS-B
06:29 51.3866 -0.1784 87° East 265 305 7,200 -600 Descending FlightAware ADS-B
06:29 51.3880 -0.1468 86° East 251 289 7,100 -600 Descending FlightAware ADS-B
06:29 51.3890 -0.1236 86° East 250 288 6,900 -900 Descending FlightAware ADS-B
06:30 51.3902 -0.0946 86° East 248 285 6,700 -1,020 Descending FlightAware ADS-B
06:30 51.3912 -0.0674 87° East 246 283 6,400 -1,020 Descending FlightAware ADS-B
06:30 51.3921 -0.0396 87° East 243 280 6,200 -1,080 Descending FlightAware ADS-B
06:30 51.3930 -0.0057 88° East 239 275 5,800 -1,080 Descending FlightAware ADS-B
06:31 51.3940 0.0111 85° East 239 275 5,700 -900 Descending FlightAware ADS-B
06:31 51.3954 0.0197 75° East 240 276 5,600 -1,140 Descending FlightAware ADS-B
06:31 51.3978 0.0281 65° Northeast 241 277 5,500 -1,140 Descending FlightAware ADS-B
06:31 51.4015 0.0365 55° Northeast 239 275 5,400 -900 Descending FlightAware ADS-B
06:31 51.4081 0.0455 40° Northeast 231 266 5,300 -720 Descending FlightAware ADS-B
06:31 51.4162 0.0511 23° Northeast 221 254 5,200 -1,020 Descending FlightAware ADS-B
06:31 51.4202 0.0523 10° North 217 250 5,100 -900 Descending FlightAware ADS-B
06:31 51.4358 0.0539 North 214 246 4,900 -900 Descending FlightAware ADS-B
06:32 51.4409 0.0535 357° North 210 242 4,800 -540 Descending FlightAware ADS-B
06:32 51.4471 0.0510 346° North 201 231 4,800 -360 Level FlightAware ADS-B
06:32 51.4550 0.0416 323° Northwest 184 212 4,700 -420 Descending FlightAware ADS-B
06:32 51.4571 0.0367 304° West 172 198 4,700 -540 Level FlightAware ADS-B
06:32 51.4595 0.0286 295° West 167 192 4,600 -480 Descending FlightAware ADS-B
06:32 51.4644 0.0092 292° West 163 188 4,500 -420 Descending FlightAware ADS-B
06:33 51.4688 -0.0079 292° West 165 190 4,400 -480 Descending FlightAware ADS-B
06:33 51.4723 -0.0218 292° West 167 192 4,300 -420 Descending FlightAware ADS-B
06:33 51.4773 -0.0423 291° West 162 186 4,200 -300 Descending FlightAware ADS-B
06:33 51.4780 -0.0482 281° West 160 184 4,200  Level FlightAware ADS-B
06:33 51.4783 -0.0591 273° West 160 184 4,200  Level FlightAware ADS-B
06:34 51.4782 -0.0779 270° West 160 184 4,200 180 Level FlightAware ADS-B
06:34 51.4782 -0.0968 270° West 166 191 4,300  Climbing FlightAware ADS-B
06:34 51.4783 -0.1085 271° West 162 186 4,200 -480 Descending FlightAware ADS-B
06:34 51.4783 -0.1267 270° West 153 176 4,100 -600 Descending FlightAware ADS-B
06:35 51.4782 -0.1420 269° West 147 169 3,900 -840 Descending FlightAware ADS-B
06:35 51.4783 -0.1589 271° West 145 167 3,700 -780 Descending FlightAware ADS-B
06:35 51.4782 -0.1753 269° West 143 165 3,500 -780 Descending FlightAware ADS-B
06:36 51.4782 -0.2084 270° West 142 163 3,100 -840 Descending FlightAware ADS-B
06:36 51.4781 -0.2383 270° West 140 161 2,700 -780 Descending FlightAware ADS-B
06:36 51.4781 -0.2670 270° West 142 163 2,400 -720 Descending FlightAware ADS-B
06:37 51.4780 -0.3000 270° West 140 161 2,000 -840 Descending FlightAware
06:38 51.4779 -0.3422 270° West 148 170 1,400 -780 Descending FlightAware UK
06:38 51.4780 -0.3400 270° West 125 144 1,500 -480 Climbing FlightAware
06:38 51.4780 -0.3620 270° West 129 148 1,200 -660 Descending FlightAware
06:39 51.4780 -0.3920 270° West 130 150 900 -420 Descending FlightAware
06:39 51.4780 -0.4200 270° West 130 150 800 -120 Descending FlightAware
06:40 51.4780 -0.4190 90° East 129 148 800  Level FlightAware
06:42 51.4667 -0.4500 90° East  Level FlightAware Approximate